RYR36XF EPKK-LIBD

Flight info

Callsign RYR36XF
Flight time N/A
Altitude 24000
Route BABKO M866 NIDOK/N0445F360 DCT XOMBA/N0448F370 DCT OSDUK/N0445F360 DCT LAKIK DCT BOSNA/N0449F370 DCT GLOMY/N0445F360 DCT NERRA DCT AIOSA DCT BANAV
Aircraft B38M/M-SDE1FGHILORVWXY/HB1

Departure

Time 2026-04-30 18:29
Airport Kraków John Paul II International Airport (EPKK)

Arrival

Time N/A
Airport Bari Karol Wojtyła International Airport (LIBD)
Time Latitude Longitude Altitude Speed Heading
2026-04-30 18:04 50.07484 19.80141 793 ft 0 kts 168°
2026-04-30 18:25 50.07476 19.80143 792 ft 3 kts 168°
2026-04-30 18:25 50.07427 19.80232 792 ft 9 kts 75°
2026-04-30 18:25 50.07457 19.80356 793 ft 16 kts 47°
2026-04-30 18:26 50.07584 19.80423 793 ft 12 kts 357°
2026-04-30 18:26 50.07682 19.80392 793 ft 14 kts 347°
2026-04-30 18:26 50.07804 19.80350 793 ft 22 kts 347°
2026-04-30 18:27 50.08004 19.80274 792 ft 13 kts 321°
2026-04-30 18:27 50.08014 19.80193 792 ft 0 kts 255°
2026-04-30 18:28 50.08014 19.80190 792 ft 0 kts 255°
2026-04-30 18:28 50.07978 19.79937 791 ft 65 kts 257°
2026-04-30 18:28 50.07613 19.77117 1168 ft 170 kts 261°
2026-04-30 18:29 50.07392 19.75218 1990 ft 179 kts 259°
2026-04-30 18:29 50.06459 19.69084 4094 ft 224 kts 260°
2026-04-30 18:30 50.05046 19.65481 5108 ft 254 kts 216°
2026-04-30 18:30 50.01127 19.63282 6494 ft 259 kts 195°
2026-04-30 18:31 49.99369 19.62573 7304 ft 263 kts 195°
2026-04-30 18:31 49.95733 19.61085 8878 ft 276 kts 194°
2026-04-30 18:32 49.91862 19.59491 10401 ft 304 kts 193°
2026-04-30 18:32 49.89780 19.58631 10908 ft 323 kts 193°
2026-04-30 18:32 49.85249 19.56766 12213 ft 348 kts 193°
2026-04-30 18:33 49.82887 19.55799 13118 ft 353 kts 192°
2026-04-30 18:33 49.78044 19.53816 14738 ft 365 kts 192°
2026-04-30 18:33 49.75568 19.52804 15536 ft 370 kts 192°
2026-04-30 18:34 49.73060 19.51780 16346 ft 374 kts 192°
2026-04-30 18:34 49.67970 19.49708 17916 ft 383 kts 193°
2026-04-30 18:34 49.65412 19.48668 18699 ft 387 kts 193°
2026-04-30 18:35 49.62790 19.47604 19337 ft 392 kts 193°
2026-04-30 18:35 49.60232 19.46086 19947 ft 398 kts 209°
2026-04-30 18:35 49.57824 19.43921 20553 ft 402 kts 209°
2026-04-30 18:36 49.52913 19.39577 21749 ft 411 kts 209°
2026-04-30 18:36 49.50420 19.37362 22337 ft 416 kts 209°
2026-04-30 18:36 49.45356 19.32864 23496 ft 424 kts 209°
2026-04-30 18:37 49.42817 19.30613 24042 ft 429 kts 209°
2026-04-30 18:37 49.40190 19.28287 24318 ft 432 kts 209°
2026-04-30 18:37 49.37630 19.26022 24384 ft 431 kts 208°
2026-04-30 18:37 49.35036 19.23730 24389 ft 430 kts 208°
2026-04-30 18:38 49.32445 19.21443 24382 ft 430 kts 208°
2026-04-30 18:38 49.29843 19.19151 24375 ft 430 kts 208°
2026-04-30 18:38 49.27243 19.16863 24367 ft 430 kts 209°
2026-04-30 18:38 49.24653 19.14586 24399 ft 427 kts 209°
2026-04-30 18:39 49.22077 19.12323 24391 ft 426 kts 209°
2026-04-30 18:39 49.19504 19.10064 24380 ft 426 kts 208°
2026-04-30 18:39 49.16915 19.07815 24615 ft 427 kts 207°
2026-04-30 18:39 49.14359 19.05614 25136 ft 429 kts 209°
2026-04-30 18:40 49.11762 19.03310 25548 ft 434 kts 208°
2026-04-30 18:40 49.09129 19.01002 26006 ft 437 kts 208°
2026-04-30 18:40 49.06475 18.98685 26440 ft 441 kts 208°
2026-04-30 18:40 49.03812 18.96366 26990 ft 441 kts 208°
2026-04-30 18:41 49.01142 18.94044 27430 ft 445 kts 208°
2026-04-30 18:41 48.98440 18.91697 27839 ft 448 kts 208°
2026-04-30 18:41 48.96639 18.90135 28129 ft 450 kts 208°
2026-04-30 18:41 48.93906 18.87766 28522 ft 454 kts 208°
2026-04-30 18:42 48.91147 18.85377 28937 ft 457 kts 208°
2026-04-30 18:42 48.84522 18.80282 29985 ft 459 kts 202°
2026-04-30 18:42 48.82554 18.78950 30417 ft 458 kts 202°
2026-04-30 18:45 48.52884 18.58449 33572 ft 481 kts 203°
2026-04-30 18:45 48.49828 18.56347 33897 ft 483 kts 203°
2026-04-30 18:45 48.46761 18.54242 34195 ft 485 kts 203°
2026-04-30 18:46 48.43671 18.52121 34477 ft 487 kts 203°
2026-04-30 18:46 48.40591 18.50012 34767 ft 488 kts 203°
2026-04-30 18:46 48.37494 18.47894 35036 ft 489 kts 203°
2026-04-30 18:46 48.34392 18.45774 35323 ft 489 kts 203°
2026-04-30 18:47 48.31281 18.43652 35596 ft 490 kts 203°
2026-04-30 18:47 48.28210 18.41560 35877 ft 490 kts 204°
2026-04-30 18:47 48.25098 18.39443 36182 ft 490 kts 204°
2026-04-30 18:47 48.22004 18.37341 36354 ft 491 kts 204°
2026-04-30 18:48 48.18900 18.35235 36341 ft 488 kts 204°
2026-04-30 18:48 48.12707 18.31042 36334 ft 487 kts 204°
2026-04-30 18:49 48.06531 18.26871 36331 ft 487 kts 204°
2026-04-30 18:49 48.00351 18.22708 36332 ft 485 kts 204°
2026-04-30 18:50 47.94204 18.18579 36337 ft 485 kts 204°
2026-04-30 18:50 47.88092 18.14483 36335 ft 485 kts 204°
2026-04-30 18:51 47.81938 18.10368 36334 ft 484 kts 204°
2026-04-30 18:51 47.75682 18.06814 36316 ft 480 kts 187°
2026-04-30 18:52 47.69024 18.06550 36329 ft 480 kts 177°
2026-04-30 18:52 47.62355 18.06708 36349 ft 479 kts 177°
2026-04-30 18:53 47.55733 18.06946 36346 ft 478 kts 176°